Overview Statistics Trail Chart Weather Telemetry Raw packets
 

This is the latest recevied weather packets stored in our database for station/object W0WFX-2. If no packets are shown the sender has not sent any weather packets the latest 10 day(s).

<< 37 38 39 40 41 42 43 >>
Time Temp. Humidity Pressure Rain* Wind** Luminosity Snow
1788386975 38.33° C 34% 1012.1 hPa 0 mm - 368 W/m² -
1788386675 38.33° C 35% 1012.1 hPa 0 mm - 369 W/m² -
1788386370 38.89° C 33% 1012.2 hPa 0 mm - 381 W/m² -
1788386066 38.33° C 34% 1012.2 hPa 0 mm - 405 W/m² -
1788385762 37.78° C 34% 1012.3 hPa 0 mm - 419 W/m² -
1788385460 37.78° C 33% 1012.2 hPa 0 mm - 426 W/m² -
1788385155 37.78° C 36% 1012.3 hPa 0 mm - 446 W/m² -
1788384851 37.22° C 35% 1012.3 hPa 0 mm - 271 W/m² -
1788384549 37.22° C 36% 1012.5 hPa 0 mm - 91 W/m² -
1788384246 37.78° C 36% 1012.4 hPa 0 mm - 101 W/m² -
1788383942 37.78° C 36% 1012.8 hPa 0 mm - 109 W/m² -
1788383638 37.22° C 36% 1012.8 hPa 0 mm - 133 W/m² -
1788383333 36.67° C 36% 1012.6 hPa 0 mm - 150 W/m² -
1788383032 36.67° C 39% 1012.8 hPa 0 mm - 150 W/m² -
1788382731 36.67° C 38% 1013.1 hPa 0 mm - 193 W/m² -
1788382426 36.67° C 37% 1013 hPa 0 mm - 118 W/m² -
1788382122 36.67° C 37% 1013.2 hPa 0 mm - 122 W/m² -
1788381821 37.22° C 36% 1013.3 hPa 0 mm - 119 W/m² -
1788381517 37.78° C 35% 1013 hPa 0 mm - 153 W/m² -
1788381217 37.78° C 35% 1013.4 hPa 0 mm - 147 W/m² -
1788380912 37.78° C 35% 1013.3 hPa 0 mm - 151 W/m² -
1788380608 38.33° C 35% 1013.3 hPa 0 mm - 123 W/m² -
1788380304 37.78° C 36% 1013.4 hPa 0 mm - 160 W/m² -
1788380004 37.78° C 36% 1013.3 hPa 0 mm - 194 W/m² -
1788379700 37.78° C 37% 1013.5 hPa 0 mm - 164 W/m² -

* Rain latest hour (hover to see other rain measurements)
** Current wind speed in m/s (hover to see current wind gust speed)